GW6267 Weather Reports


time (UTC)temp
F
wind
direction
speed
knots
gust
knots
rain 1hr
in
rain 24hr
in
rain mn
in
humidity
%
barometer
mb
20260505003003 57 95 3.5 7.8 0.00 0.00 0.00 75 1027.1
20260505002003 57 95 2.6 7.0 0.00 0.00 0.00 76 1027.0
20260505001003 56 104 3.5 7.8 0.00 0.00 0.00 77 1026.9
20260505000003 55 106 2.6 9.6 0.00 0.00 0.00 79 1026.7
20260504235024 55 103 1.7 4.3 0.00 0.00 0.00 80 1026.7
20260504234003 54 125 2.6 5.2 0.00 0.00 0.00 81 1026.5
20260504233003 54 112 2.6 6.1 0.00 0.00 0.00 81 1026.4
20260504232003 53 137 1.7 4.3 0.00 0.00 0.00 82 1026.2
20260504231003 53 142 1.7 3.5 0.00 0.00 0.00 83 1026.2
20260504230003 52 131 1.7 4.3 0.00 0.00 0.00 84 1026.0
20260504225003 52 135 1.7 4.3 0.00 0.00 0.00 84 1025.9
20260504224003 52 136 1.7 4.3 0.00 0.00 0.00 84 1025.8
20260504223003 52 132 0.9 3.5 0.00 0.00 0.00 84 1025.6
20260504222003 52 136 1.7 4.3 0.00 0.00 0.00 83 1025.5
20260504221003 53 131 1.7 7.8 0.00 0.00 0.00 83 1025.4
20260504220024 53 127 1.7 5.2 0.00 0.00 0.00 82 1025.4
20260504215024 53 117 2.6 6.1 0.00 0.00 0.00 82 1025.3
20260504214003 53 125 2.6 7.0 0.00 0.00 0.00 82 1025.3
20260504213003 53 123 2.6 5.2 0.00 0.00 0.00 81 1025.3
20260504212003 54 127 2.6 5.2 0.00 0.00 0.00 81 1025.3
20260504211003 54 130 3.5 6.1 0.00 0.00 0.00 81 1025.3
20260504210004 54 142 2.6 7.0 0.00 0.00 0.00 81 1025.3
20260504205003 54 136 1.7 4.3 0.00 0.00 0.00 81 1025.2
20260504204003 54 141 2.6 4.3 0.00 0.00 0.00 81 1025.3
20260504203003 54 147 2.6 6.1 0.00 0.00 0.00 80 1025.3
20260504202003 54 148 2.6 6.1 0.00 0.00 0.00 80 1025.3
20260504201003 55 145 2.6 6.1 0.00 0.00 0.00 79 1025.3
20260504200003 55 139 3.5 7.8 0.00 0.00 0.00 78 1025.3
20260504195003 55 147 3.5 7.8 0.00 0.00 0.00 79 1025.3
20260504194004 55 144 2.6 7.0 0.00 0.00 0.00 79 1025.3
20260504193004 55 140 3.5 7.0 0.00 0.00 0.00 79 1025.3
20260504192004 55 135 3.5 6.1 0.00 0.00 0.00 79 1025.3
20260504191004 55 143 3.5 7.0 0.00 0.00 0.00 79 1025.4
20260504190004 55 146 3.5 6.1 0.00 0.00 0.00 79 1025.5
20260504185025 55 147 3.5 6.1 0.00 0.00 0.00 78 1025.5
20260504184004 55 139 3.5 7.8 0.00 0.00 0.00 78 1025.6
20260504183004 55 147 4.3 7.8 0.00 0.00 0.00 78 1025.6
20260504182004 55 148 4.3 7.8 0.00 0.00 0.00 78 1025.7
20260504181025 55 147 3.5 7.0 0.00 0.00 0.00 78 1025.8
20260504180025 56 150 3.5 7.0 0.00 0.00 0.00 77 1025.9
20260504175004 56 150 2.6 5.2 0.00 0.00 0.00 77 1025.9
20260504174004 56 146 2.6 6.1 0.00 0.00 0.00 77 1025.8
20260504173004 56 147 3.5 6.1 0.00 0.00 0.00 77 1025.8
20260504172025 56 147 3.5 5.2 0.00 0.00 0.00 77 1025.9
20260504171004 56 147 2.6 4.3 0.00 0.00 0.00 78 1026.0
20260504151004 58 146 1.7 3.5 0.00 0.00 0.00 73 1026.3
20260504141004 59 127 3.5 6.1 0.00 0.00 0.00 72 1026.3
20260504081004 71 226 1.7 5.2 0.00 0.00 0.00 59 1025.0
20260504050004 70 150 2.6 7.8 0.00 0.00 0.00 54 1026.1
20260504045004 69 142 3.5 7.8 0.00 0.00 0.00 54 1026.2
20260504044003 69 141 2.6 7.8 0.00 0.00 0.00 56 1026.3
20260504043004 68 139 3.5 7.0 0.00 0.00 0.00 56 1026.5
20260504042004 69 136 2.6 8.7 0.00 0.00 0.00 56 1026.7
20260504041004 68 104 3.5 9.6 0.00 0.00 0.00 57 1026.9
20260504040004 68 116 3.5 8.7 0.00 0.00 0.00 58 1027.1
20260504035003 68 77 2.6 7.0 0.00 0.00 0.00 57 1027.3
20260504034004 67 78 3.5 7.8 0.00 0.00 0.00 59 1027.5
20260504033004 66 127 5.2 9.6 0.00 0.00 0.00 61 1027.6
20260504032004 66 135 4.3 7.8 0.00 0.00 0.00 62 1027.6
20260504031004 66 114 4.3 8.7 0.00 0.00 0.00 62 1027.7
20260504030004 65 111 4.3 9.6 0.00 0.00 0.00 63 1027.8
20260504025004 65 118 4.3 7.8 0.00 0.00 0.00 64 1027.9
20260504024025 64 106 5.2 10.4 0.00 0.00 0.00 65 1028.1
20260504023025 64 105 5.2 11.3 0.00 0.00 0.00 64 1028.2
20260504022003 64 91 4.3 9.6 0.00 0.00 0.00 67 1028.3
20260504021004 63 87 5.2 10.4 0.00 0.00 0.00 68 1028.3
20260504020025 62 89 4.3 10.4 0.00 0.00 0.00 69 1028.3
20260504015003 62 84 6.1 10.4 0.00 0.00 0.00 70 1028.4
20260504014004 61 86 5.2 11.3 0.00 0.00 0.00 71 1028.3
20260504013004 61 85 4.3 9.6 0.00 0.00 0.00 72 1028.3
20260504012025 60 98 4.3 9.6 0.00 0.00 0.00 74 1028.3
20260504011003 59 98 4.3 10.4 0.00 0.00 0.00 76 1028.3
20260504010024 58 99 4.3 10.4 0.00 0.00 0.00 77 1028.4
20260504005004 57 106 4.3 9.6 0.00 0.00 0.00 78 1028.3
20260504004003 57 108 3.5 7.8 0.00 0.00 0.00 79 1028.4